User: anonymous   Login
Location: *
(51.1248°S, 108.4023°W)
Time: 05:01:15
(UTC+00:00)
Language:

Cosmos 1269 Rocket - Orbit

View from above orbital plane
View from above orbital plane
View from above satellite
View from above satellite

Ground track
Ground track

The orbit data is extracted from the following two-line orbital elements,

1 12443U 81041B   21261.53540961 -.00000022  00000-0  13574-5 0  9993
2 12443  74.0553 202.7247 0005679 275.8461  84.2044 14.34764785110658
Epoch (UTC): 18 September 2021 12:50:59
Eccentricity: 0.0005679
inclination: 74.0553°
perigee height: 772 km
apogee height: 780 km
right ascension of ascending node: 202.7247°
argument of perigee: 275.8461°
revolutions per day: 14.34764785
mean anomaly at epoch: 84.2044°
orbit number at epoch: 11065

The dashed part of the orbit path shows where the satellite is in the earth's shadow,  

DLR